CFB Gagetown, New Brunswick

Past 24 Hour Conditions

Date / Time
(ADT)
Conditions Temp
(°F)
Humidity
(%)
Dew Point
(°F)
Wind
(mph)
Pressure
(inches)
Visibility
(miles)
31 March 2015
15:00 Cloudy 38 67 28 W 15 29.5 15
14:00 Cloudy 38 66 28 WNW 14 29.5 15
13:00 Cloudy 38 71 30 WNW 15 29.5 15
12:00 Cloudy 37 76 30 WNW 8 29.5 15
11:00 Light Snowshower 36 80 30 W 10 29.5 15
10:00 Cloudy 34 89 31 WSW 9 29.5 15
9:00 Cloudy 34 90 32 SW 7 29.5 12
8:00 Cloudy 34 91 32 WSW 5 29.5 10
7:00 Cloudy 34 94 32 SSW 3 29.5 10
6:00 Cloudy 34 94 32 calm 29.5 15
5:00 Cloudy 34 94 32 SSW 2 29.5 15
4:00 Cloudy 34 94 32 SSW 3 29.5 15
3:00 Light Snowshower 34 94 33 S 5 29.6 12
2:00 Light Snowshower 34 96 33 S 8 29.6 12
1:00 Light Snowshower 34 95 33 S 8 29.6 10
00:00 Light Snowshower 34 95 33 S 9 29.6 8
30 March 2015
23:00 Light Snowshower 34 94 32 S 8 29.6 6
22:00 Light Snowshower 33   92 32 S 11 gust 18 29.6 12
21:00 Light Snowshower 33   92 31 S 9 29.7 3
20:00 Light Snowshower 34 90 31 S 10 29.7 5
19:00 Light Snowshower 35 84 31 S 11 gust 21 29.7 15
18:00 Light Snowshower 37 69 27 S 15 gust 22 29.7 15
17:00 Cloudy 38 60 26 S 17 gust 24 29.7 15
16:00 Cloudy 39   58 26 S 21 gust 29 29.7 15
15:00 Cloudy 38 56 24 S 21 gust 28 29.8 15
N/A Not available
↑ Highest temperature
↓ Lowest temperature

If you require additional historical weather information, please visit Climate Data Online.

What we are doing

Date modified: